GIOVE-A 1 28922U 05051A 12134.97081374 .00000066 00000-0 10000-3 0 9620 2 28922 56.2303 129.4054 0008058 359.1768 0.8236 1.69473469 39560 GIOVE-B 1 32781U 08020A 12136.38938837 .00000068 00000-0 10000-3 0 5953 2 32781 55.9192 163.6985 0023698 231.2482 128.6035 1.70960456 25305 GALILEO-PFM (GSAT0101) 1 37846U 11060A 12135.15617257 .00000058 00000-0 00000+0 0 827 2 37846 54.7436 124.0191 0005219 293.6963 66.2428 1.70474592 3507 GALILEO-FM2 (GSAT0102) 1 37847U 11060B 12135.09071525 .00000057 00000-0 10000-3 0 838 2 37847 54.7436 124.0189 0006162 282.5969 77.3280 1.70474893 3509